Oxford, CT

6:50 PM EDT on October 16, 2017 (GMT -0400)
Waterbury-Oxford

Weather History for KOXC - April, 2013

Change the Weather History Date:

Friday, April 26, 2013

  Actual Average Record
Temperature  
Mean Temperature 50 °F -  
Max Temperature 62 °F 59 °F 77 °F (2011)
Min Temperature 37 °F 38 °F 28 °F (2002)
Degree Days  
Heating Degree Days 16    
Moisture  
Dew Point 27 °F    
Average Humidity 45    
Maximum Humidity 61    
Minimum Humidity 29    
Precipitation  
Precipitation 0.00 in - - ()
Sea Level Pressure  
Sea Level Pressure 30.34 in    
Wind  
Wind Speed 5 mph (NNE)    
Max Wind Speed 12 mph    
Max Gust Speed 17 mph    
Visibility 10 miles    
Events      
Averages and records for this station are not official NWS values.
T = Trace of Precipitation, MM = Missing Value Source: NWS Daily Summary

Daily Weather History Graph

Daily Weather History Graph

Search for Another Location

Airport or City:

Trip Planner

Search our weather history database for the weather conditions in past years. The results will help you decide how hot, cold, wet, or windy it might be!

Date:

Astronomy

Apr. 26, 2013 Rise Set
Actual Time 5:56 AM EDT 7:45 PM EDT
Civil Twilight 5:26 AM EDT 8:14 PM EDT
Nautical Twilight 4:50 AM EDT 8:51 PM EDT
Astronomical Twilight 4:11 AM EDT 9:30 PM EDT
Moon 9:05 PM EDT (4/26) 6:20 AM EDT (4/26)
Length of Visible Light 14h 48m
Length of Day
13h 49m
Full, 99% of the Moon is Illuminated
Apr 26
Full
May 2
Last Quarter
May 9
New
May 18
First Quarter
May 25
Full

Hourly Weather History & Observations

Time (EDT) Temp. Windchill Dew Point Humidity Pressure Visibility Wind Dir Wind Speed Gust Speed Precip Events Conditions
12:15 AM 46.4 °F 44.3 °F 24.8 °F 43% 30.28 in 10.0 mi East 4.6 mph - N/A   Clear
12:35 AM 46.4 °F 44.3 °F 24.8 °F 43% 30.28 in 10.0 mi East 4.6 mph - N/A   Clear
12:55 AM 46.4 °F 43.5 °F 23.0 °F 40% 30.28 in 10.0 mi East 5.8 mph - N/A   Clear
1:15 AM 46.4 °F 43.5 °F 24.8 °F 43% 30.28 in 10.0 mi East 5.8 mph - N/A   Clear
1:35 AM 46.4 °F 44.3 °F 24.8 °F 43% 30.28 in 10.0 mi East 4.6 mph - N/A   Clear
1:55 AM 44.6 °F - 24.8 °F 46% 30.28 in 10.0 mi Calm Calm - N/A   Clear
2:15 AM 41.0 °F 39.0 °F 24.8 °F 53% 30.28 in 10.0 mi SE 3.5 mph - N/A   Clear
2:35 AM 42.8 °F - 24.8 °F 49% 30.29 in 10.0 mi Calm Calm - N/A   Clear
2:55 AM 39.2 °F 37.0 °F 24.8 °F 56% 30.28 in 10.0 mi NE 3.5 mph - N/A   Clear
3:15 AM 39.2 °F 34.2 °F 26.6 °F 61% 30.28 in 10.0 mi East 6.9 mph - N/A   Clear
3:35 AM 42.8 °F - 24.8 °F 49% 30.28 in 10.0 mi Calm Calm - N/A   Clear
3:55 AM 39.2 °F - 26.6 °F 61% 30.29 in 10.0 mi Calm Calm - N/A   Clear
4:35 AM 37.4 °F 34.9 °F 23.0 °F 56% 30.31 in 10.0 mi NNE 3.5 mph - N/A   Clear
4:55 AM 39.2 °F 37.0 °F 23.0 °F 52% 30.31 in 10.0 mi ENE 3.5 mph - N/A   Clear
5:15 AM 39.2 °F 37.0 °F 23.0 °F 52% 30.32 in 10.0 mi ENE 3.5 mph - N/A   Clear
5:35 AM 39.2 °F 35.9 °F 21.2 °F 49% 30.32 in 10.0 mi ENE 4.6 mph - N/A   Clear
5:55 AM 39.2 °F - 24.8 °F 56% 30.33 in 10.0 mi Calm Calm - N/A   Clear
6:45 AM 37.4 °F 33.8 °F 24.8 °F 60% 30.35 in 10.0 mi North 4.6 mph - N/A   Clear
7:45 AM 44.6 °F 43.1 °F 28.4 °F 53% 30.37 in 10.0 mi North 3.5 mph - N/A   Clear
9:45 AM 53.6 °F - 30.2 °F 41% 30.27 in 10.0 mi NW 3.5 mph - N/A   Clear
10:45 AM 55.4 °F - 32.0 °F 41% 30.38 in 10.0 mi North 3.5 mph - N/A   Clear
11:45 AM 57.2 °F - 33.8 °F 41% 30.37 in 10.0 mi NE 4.6 mph - N/A   Clear
12:45 PM 60.8 °F - 30.2 °F 31% 30.36 in 10.0 mi South 6.9 mph - N/A   Clear
2:07 PM 60.8 °F - 30.2 °F 31% 30.35 in 10.0 mi NNW 4.6 mph - N/A   Clear
2:45 PM 60.8 °F - 30.2 °F 31% 30.36 in 10.0 mi WNW 10.4 mph - N/A   Clear
3:45 PM 62.6 °F - 32.0 °F 32% 30.35 in 10.0 mi WNW 8.1 mph - N/A   Partly Cloudy
4:45 PM 60.8 °F - 30.2 °F 31% 30.35 in 10.0 mi WNW 8.1 mph 17.3 mph N/A   Partly Cloudy
5:45 PM 60.8 °F - 28.4 °F 29% 30.35 in 10.0 mi North 9.2 mph 17.3 mph N/A   Partly Cloudy
6:45 PM 59.0 °F - 28.4 °F 31% 30.36 in 10.0 mi NNW 8.1 mph 17.3 mph N/A   Partly Cloudy
7:45 PM 55.4 °F - 26.6 °F 33% 30.37 in 10.0 mi NNW 8.1 mph - N/A   Clear
9:15 PM 51.8 °F - 26.6 °F 38% 30.40 in 10.0 mi North 11.5 mph - N/A   Clear
9:35 PM 48.2 °F - 28.4 °F 46% 30.41 in 10.0 mi North 11.5 mph - N/A   Clear
9:55 PM 46.4 °F 41.5 °F 28.4 °F 50% 30.42 in 10.0 mi North 10.4 mph - N/A   Clear
10:15 PM 48.2 °F - 28.4 °F 46% 30.42 in 10.0 mi North 11.5 mph - N/A   Clear
10:55 PM 46.4 °F 41.9 °F 28.4 °F 50% 30.42 in 10.0 mi North 9.2 mph - N/A   Clear
11:15 PM 46.4 °F 41.1 °F 26.6 °F 46% 30.41 in 10.0 mi North 11.5 mph - N/A   Clear
11:35 PM 46.4 °F 41.5 °F 26.6 °F 46% 30.42 in 10.0 mi North 10.4 mph - N/A   Clear